Location: Cajon Junction
(34.3117°N, 117.4748°W)
Time: 15:48:44
(UTC+00:00)

Cosmos 1331 Rocket - Pass Details

Date: 18 April 2024
Orbit: 747 x 776 km, 74.0° (Epoch: 20 May)

Event Time Altitude Azimuth Distance (km) Brightness Sun altitude
Rises 12:09:37 0° 344° (NNW) 3,260 7.4 -13.4°
Reaches altitude 10° 12:12:01 10° 346° (NNW) 2,329 6.6 -13.0°
Maximum altitude 12:17:19 77° 72° (ENE) 797 4.2 -12.0°
Drops below altitude 10° 12:22:33 10° 159° (SSE) 2,305 6.5 -11.0°
Sets 12:24:55 0° 161° (SSE) 3,224 7.2 -10.5°
